Date String (YYYY-MM-DD hh:mm:ss) UTC,Instrument flags,Ambient pressure (hPa),Sample flow (lpm),Bypass flow (lpm),Sample temperature (°C),Ambient temperature (°C),ASC tube jacket temperature (°C),LED temperature (°C),Box temperature (°C),Sample RH (%),Span deviation,Mass concentration (μg/m³),Mass concentration (μg/m³),Mass concentration (μg/m³)
DateTimeUTC,F1_M11,P_M11,Q1_M11,Q2_M11,T1_M11,T2_M11,T3_M11,T4_M11,T5_M11,U1_M11,ZSPAN_M11,X0_M11,X2_M11,X1_M11
2022-10-24 20:00:00,,0819.1,5.00,0.00,25.8,24.2,00.0,34.6,27.6,06.8,0000.0,0002.65,0000.89,0000.71
2022-10-24 20:01:00,,0819.1,5.00,0.00,25.8,24.2,00.0,34.6,27.6,06.8,0000.0,0002.61,0000.89,0000.71
2022-10-24 20:02:00,,0819.2,5.00,0.00,25.7,24.2,00.0,34.6,27.6,06.9,0000.0,0002.66,0000.91,0000.72
2022-10-24 20:03:00,,0819.1,4.99,0.00,25.7,24.2,00.0,34.6,27.5,07.0,0000.0,0002.58,0000.88,0000.72
2022-10-24 20:04:00,,0819.1,5.00,0.00,25.7,24.2,00.0,34.6,27.6,06.9,0000.0,0003.48,0000.86,0000.72
2022-10-24 20:05:00,,0819.2,5.02,0.00,25.7,24.2,00.0,34.6,27.6,07.0,0000.0,0003.71,0000.87,0000.73
2022-10-24 20:06:00,,0819.2,4.99,0.00,25.7,24.2,00.0,34.6,27.6,07.0,0000.0,0003.68,0000.87,0000.73
2022-10-24 20:07:00,,0819.2,4.99,0.00,25.7,24.2,00.0,34.6,27.6,06.9,0000.0,0003.20,0000.86,0000.74
2022-10-24 20:08:00,,0819.1,5.00,0.00,25.7,24.2,00.0,34.6,27.6,06.9,0000.0,0002.67,0000.86,0000.74
2022-10-24 20:09:00,,0819.2,5.01,0.00,25.7,24.2,00.0,34.6,27.7,06.9,0000.0,0003.72,0000.90,0000.74
2022-10-24 20:10:00,,0819.2,5.00,0.00,25.7,24.1,00.0,34.6,27.6,06.8,0000.0,0004.01,0000.89,0000.74
2022-10-24 20:11:00,,0819.2,4.99,0.00,25.7,24.1,00.0,34.6,27.5,06.8,0000.0,0004.44,0000.89,0000.74
2022-10-24 20:12:00,,0819.2,4.99,0.00,25.7,24.1,00.0,34.6,27.5,06.8,0000.0,0004.49,0000.89,0000.74
2022-10-24 20:13:00,,0819.2,5.00,0.00,25.7,24.1,00.0,34.6,27.6,06.7,0000.0,0004.54,0000.89,0000.74
2022-10-24 20:14:00,,0819.2,4.99,0.00,25.7,24.1,00.0,34.6,27.6,06.7,0000.0,0004.42,0000.87,0000.74
2022-10-24 20:15:00,,0819.2,4.99,0.00,25.7,24.1,00.0,34.6,27.5,06.7,0000.0,0003.56,0000.85,0000.73
2022-10-24 20:16:00,,0819.2,5.00,0.00,25.7,24.1,00.0,34.6,27.5,06.7,0000.0,0003.41,0000.85,0000.73
2022-10-24 20:17:00,,0819.2,5.00,0.00,25.7,24.1,00.0,34.6,27.5,06.8,0000.0,0004.31,0000.90,0000.72
2022-10-24 20:18:00,,0819.1,5.00,0.00,25.7,24.1,00.0,34.6,27.5,06.8,0000.0,0004.39,0000.91,0000.72
2022-10-24 20:19:00,,0819.2,5.00,0.00,25.7,24.1,00.0,34.6,27.5,06.9,0000.0,0007.44,0001.53,0000.75
2022-10-24 20:20:00,,0819.2,5.00,0.00,25.7,24.1,00.0,34.5,27.4,06.9,0000.0,0009.93,0002.18,0000.79
2022-10-24 20:21:00,,0819.2,5.00,0.00,25.7,24.1,00.0,34.6,27.4,06.8,0000.0,0009.74,0002.18,0000.79
2022-10-24 20:22:00,,0819.1,5.00,0.00,25.6,24.1,00.0,34.5,27.4,06.8,0000.0,0009.51,0002.18,0000.80
2022-10-24 20:23:00,,0819.1,5.00,0.00,25.6,24.1,00.0,34.5,27.4,06.8,0000.0,0009.51,0002.19,0000.80
2022-10-24 20:24:00,,0819.1,5.00,0.00,25.6,24.1,00.0,34.5,27.5,06.8,0000.0,0009.52,0002.20,0000.80
2022-10-24 20:25:00,,0819.1,5.00,0.00,25.7,24.1,00.0,34.5,27.5,07.0,0000.0,0009.54,0002.21,0000.79
2022-10-24 20:26:00,,0819.1,5.02,0.00,25.6,24.1,00.0,34.5,27.5,07.0,0000.0,0009.54,0002.21,0000.79
2022-10-24 20:27:00,,0819.1,4.99,0.00,25.7,24.1,00.0,34.5,27.5,07.0,0000.0,0009.36,0002.20,0000.79
2022-10-24 20:28:00,,0819.2,5.00,0.00,25.7,24.1,00.0,34.5,27.5,06.9,0000.0,0008.92,0002.15,0000.79
2022-10-24 20:29:00,,0819.3,4.99,0.00,25.6,24.1,00.0,34.5,27.5,07.0,0000.0,0008.92,0002.16,0000.79
2022-10-24 20:30:00,,0819.2,5.00,0.00,25.6,24.0,00.0,34.5,27.5,07.1,0000.0,0005.20,0001.49,0000.75
2022-10-24 20:31:00,,0819.2,5.00,0.00,25.6,24.0,00.0,34.5,27.5,07.1,0000.0,0001.60,0000.90,0000.70
2022-10-24 20:32:00,,0819.2,5.00,0.00,25.6,24.1,00.0,34.5,27.5,07.1,0000.0,0001.68,0000.90,0000.70
2022-10-24 20:33:00,,0819.2,5.00,0.00,25.6,24.1,00.0,34.5,27.5,07.1,0000.0,0001.63,0000.90,0000.70
2022-10-24 20:34:00,,0819.2,5.00,0.00,25.6,24.1,00.0,34.5,27.5,07.1,0000.0,0001.72,0000.90,0000.69
2022-10-24 20:35:00,,0819.2,5.00,0.00,25.6,24.1,00.0,34.5,27.4,07.1,0000.0,0001.77,0000.90,0000.70
2022-10-24 20:36:00,,0819.2,5.01,0.00,25.6,24.0,00.0,34.5,27.5,07.1,0000.0,0001.78,0000.89,0000.70
2022-10-24 20:37:00,,0819.3,5.00,0.00,25.6,24.0,00.0,34.5,27.5,07.1,0000.0,0001.76,0000.89,0000.70
2022-10-24 20:38:00,,0819.2,5.00,0.00,25.6,24.0,00.0,34.5,27.5,07.2,0000.0,0001.84,0000.92,0000.71
2022-10-24 20:39:00,,0819.2,5.00,0.00,25.6,24.0,00.0,34.5,27.4,07.1,0000.0,0002.03,0000.97,0000.72
2022-10-24 20:40:00,,0819.1,4.99,0.00,25.6,24.0,00.0,34.5,27.5,07.1,0000.0,0001.96,0000.95,0000.72
2022-10-24 20:41:00,,0819.2,5.00,0.00,25.6,24.0,00.0,34.5,27.5,07.0,0000.0,0001.89,0000.93,0000.71
2022-10-24 20:42:00,,0819.1,5.00,0.00,25.6,24.0,00.0,34.5,27.5,07.0,0000.0,0001.84,0000.92,0000.72
2022-10-24 20:43:00,,0819.2,4.99,0.00,25.6,24.0,00.0,34.5,27.5,07.1,0000.0,0001.73,0000.92,0000.72
2022-10-24 20:44:00,,0819.2,5.01,0.00,25.6,24.0,00.0,34.5,27.5,07.2,0000.0,0001.70,0000.92,0000.72
2022-10-24 20:45:00,,0819.3,5.01,0.00,25.6,24.0,00.0,34.5,27.5,07.2,0000.0,0001.70,0000.93,0000.72
2022-10-24 20:46:00,,0819.3,5.00,0.00,25.6,24.0,00.0,34.5,27.4,07.2,0000.0,0001.66,0000.92,0000.72
2022-10-24 20:47:00,,0819.2,4.99,0.00,25.6,24.0,00.0,34.5,27.4,07.3,0000.0,0001.65,0000.93,0000.73
2022-10-24 20:48:00,,0819.3,4.99,0.00,25.6,24.0,00.0,34.5,27.4,07.2,0000.0,0001.70,0000.95,0000.74
2022-10-24 20:49:00,,0819.3,5.00,0.00,25.6,24.0,00.0,34.5,27.4,07.3,0000.0,0002.10,0000.97,0000.74
2022-10-24 20:50:00,,0819.3,5.00,0.00,25.6,24.0,00.0,34.5,27.4,07.3,0000.0,0001.93,0000.94,0000.74
2022-10-24 20:51:00,,0819.2,4.99,0.00,25.6,24.0,00.0,34.5,27.5,07.2,0000.0,0002.08,0000.98,0000.75
2022-10-24 20:52:00,,0819.3,5.00,0.00,25.6,23.9,00.0,34.5,27.4,07.3,0000.0,0002.15,0000.99,0000.75
2022-10-24 20:53:00,,0819.2,5.01,0.00,25.6,23.9,00.0,34.5,27.4,07.2,0000.0,0002.17,0000.99,0000.76
2022-10-24 20:54:00,,0819.3,5.00,0.00,25.6,23.9,00.0,34.5,27.4,07.3,0000.0,0002.72,0000.99,0000.75
2022-10-24 20:55:00,,0819.3,4.99,0.00,25.6,23.9,00.0,34.4,27.4,07.3,0000.0,0002.95,0001.01,0000.76
2022-10-24 20:56:00,,0819.3,4.99,0.00,25.6,23.9,00.0,34.4,27.4,07.4,0000.0,0002.89,0001.01,0000.77
2022-10-24 20:57:00,,0819.3,5.03,0.00,25.6,23.9,00.0,34.4,27.4,07.4,0000.0,0002.78,0001.00,0000.77
2022-10-24 20:58:00,,0819.3,4.99,0.00,25.6,23.9,00.0,34.4,27.4,07.4,0000.0,0002.75,0001.01,0000.78
2022-10-24 20:59:00,,0819.4,5.00,0.00,25.6,23.9,00.0,34.4,27.4,07.4,0000.0,0002.76,0001.02,0000.79
